GW0020 Weather Reports


Display with metric or nautical units.
time (UTC)temp
F
wind
direction
speed
MPH
gust
MPH
rain 1hr
in
rain 24hr
in
rain mn
in
humidity
%
barometer
mb
20260506014551 78 172 0.0 2.0 0.00 0.00 0.00 77 1006.9
20260506013100 78 133 0.0 2.0 0.00 0.00 0.00 76 1006.9
20260506011615 79 135 0.0 2.0 0.00 0.00 0.00 74 1006.8
20260506010057 80 0 0.0 4.0 0.00 0.00 0.00 74 1006.8
20260506004553 81 156 0.0 3.0 0.00 0.00 0.00 73 1006.8
20260506003056 81 0 0.0 2.0 0.00 0.00 0.00 72 1006.8
20260506001556 82 0 0.0 3.0 0.00 0.00 0.00 71 1007.0
20260506000054 82 197 1.0 4.0 0.00 0.00 0.00 70 1006.8
20260505234553 82 0 0.0 3.0 0.00 0.00 0.00 69 1006.9
20260505233050 82 219 1.0 5.0 0.00 0.00 0.00 69 1006.6
20260505231604 83 162 2.0 6.0 0.00 0.00 0.00 68 1006.5
20260505230051 83 156 1.0 6.0 0.00 0.00 0.00 68 1006.5
20260505224555 84 194 1.0 4.0 0.00 0.00 0.00 68 1006.2
20260505223048 84 160 1.0 4.0 0.00 0.00 0.00 68 1006.3
20260505221551 84 228 2.0 5.0 0.00 0.00 0.00 67 1006.0
20260505220057 85 105 2.0 7.0 0.00 0.00 0.00 67 1006.4
20260505214556 85 131 3.0 6.0 0.00 0.00 0.00 66 1006.5
20260505213053 86 89 2.0 6.0 0.00 0.00 0.00 66 1006.6
20260505211548 88 193 2.0 4.0 0.00 0.00 0.00 65 1006.8
20260505210051 87 153 1.0 6.0 0.00 0.00 0.00 66 1007.0
20260505204554 87 155 3.0 6.0 0.00 0.00 0.00 64 1007.2
20260505203117 87 192 2.0 7.0 0.00 0.00 0.00 64 1007.3
20260505201554 87 217 2.0 5.0 0.00 0.00 0.00 63 1007.5
20260505200054 86 195 1.0 6.0 0.00 0.00 0.00 66 1007.6
20260505194551 86 250 2.0 7.0 0.00 0.00 0.00 64 1007.8
20260505193051 85 160 3.0 5.0 0.00 0.00 0.00 66 1008.1
20260505191600 85 114 2.0 9.0 0.00 0.00 0.00 67 1008.2
20260505190054 84 157 2.0 6.0 0.00 0.00 0.00 67 1008.4
20260505184600 83 165 2.0 5.0 0.00 0.00 0.00 67 1008.5
20260505183054 82 178 2.0 6.0 0.00 0.00 0.00 69 1008.9
20260505181555 82 328 1.0 7.0 0.00 0.00 0.00 70 1009.1
20260505180052 79 138 2.0 6.0 0.00 0.00 0.00 73 1009.2
20260505174555 79 158 0.0 6.0 0.00 0.00 0.00 74 1009.5
20260505173057 77 129 1.0 5.0 0.00 0.00 0.00 76 1009.5
20260505171552 76 203 1.0 6.0 0.00 0.00 0.00 77 1009.6
20260505170107 75 184 1.0 5.0 0.00 0.00 0.00 79 1009.7
20260505164555 74 88 1.0 7.0 0.00 0.00 0.00 80 1009.6
20260505163053 74 291 1.0 4.0 0.00 0.00 0.00 81 1009.6
20260505161614 73 162 1.0 5.0 0.00 0.00 0.00 82 1009.8
20260505153101 72 224 0.0 3.0 0.00 0.00 0.00 84 1009.6
20260505151559 72 346 0.0 4.0 0.00 0.00 0.00 84 1009.5
20260505130105 70 112 1.0 4.0 0.00 0.00 0.00 85 1008.4
20260505124608 70 231 1.0 4.0 0.00 0.00 0.00 85 1008.3
20260505123105 70 231 1.0 5.0 0.00 0.00 0.00 86 1008.2
20260505121608 69 133 1.0 6.0 0.00 0.00 0.00 86 1007.8
20260505120048 69 165 0.0 5.0 0.00 0.00 0.00 86 1007.6
20260505114552 69 192 1.0 4.0 0.00 0.00 0.00 86 1007.4
20260505113050 69 129 1.0 7.0 0.00 0.00 0.00 86 1007.4
20260505111553 70 137 2.0 5.0 0.00 0.00 0.00 85 1007.5
20260505101555 70 153 1.0 4.0 0.00 0.00 0.00 85 1007.7
20260505100058 70 133 0.0 4.0 0.00 0.00 0.00 85 1007.9
20260505094555 70 103 1.0 6.0 0.00 0.00 0.00 85 1007.8
20260505093051 70 234 1.0 6.0 0.00 0.00 0.00 85 1008.0
20260505091548 70 162 1.0 7.0 0.00 0.00 0.00 84 1008.0
20260505084553 70 154 2.0 3.0 0.00 0.00 0.00 84 1008.3
20260505083057 70 229 2.0 8.0 0.00 0.00 0.00 84 1008.2
20260505081551 70 214 2.0 5.0 0.00 0.00 0.00 83 1008.4
20260505080053 70 242 1.0 5.0 0.00 0.00 0.00 83 1008.5
20260505074543 70 150 2.0 8.0 0.00 0.00 0.00 83 1008.7
20260505073053 70 237 3.0 6.0 0.00 0.00 0.00 83 1008.8
20260505071553 70 229 1.0 5.0 0.00 0.00 0.00 83 1009.1
20260505070052 70 214 2.0 10.0 0.00 0.00 0.00 83 1009.3
20260505064544 70 225 2.0 5.0 0.00 0.00 0.00 82 1009.5
20260505063049 70 157 3.0 6.0 0.00 0.00 0.00 82 1009.5
20260505061550 71 212 1.0 6.0 0.00 0.00 0.00 82 1009.8
20260505060136 71 125 2.0 6.0 0.00 0.00 0.00 82 1009.9
20260505054550 71 98 2.0 6.0 0.00 0.00 0.00 82 1009.7
20260505053102 71 182 3.0 8.0 0.00 0.00 0.00 82 1009.6
20260505051552 71 211 2.0 6.0 0.00 0.00 0.00 82 1009.7
20260505041548 72 155 2.0 7.0 0.00 0.00 0.00 80 1009.7
20260505040049 72 139 2.0 7.0 0.00 0.00 0.00 79 1009.6
20260505034547 72 174 1.0 5.0 0.00 0.00 0.00 78 1009.7
20260505033106 73 235 1.0 3.0 0.00 0.00 0.00 77 1009.7
20260505031546 73 95 2.0 6.0 0.00 0.00 0.00 77 1009.6
20260505030048 73 207 1.0 5.0 0.00 0.00 0.00 75 1009.7
20260505024544 74 184 1.0 7.0 0.00 0.00 0.00 74 1009.6
20260505023100 74 131 2.0 6.0 0.00 0.00 0.00 72 1009.6
20260505021555 74 227 0.0 6.0 0.00 0.00 0.00 71 1009.4
20260505020057 75 226 1.0 5.0 0.00 0.00 0.00 70 1009.2